Zurück zum Katalog

COSMOS 1275 DEB

AktivPO
NORAD 13796·DEBRIS·🇷🇺 Russia

Gestartet Jun 4, 1981 von Plesetsk Cosmodrome

Loading…

Nächste Überflüge (nächste 24 Stunden)

TLE

AktuellSource: Space-Track

Epoche: Sep 14, 2026, 05:38 UTC

1 13796U 81053GQ  26257.23484032  .00000925  00000-0  78071-3 0  9993
2 13796  83.0200  76.0520 0109651 230.5508 256.4808 13.84101102195139

Verfolge COSMOS 1275 DEB in Echtzeit mit AllMySat

Download on the App Store